{"data":{"norad_id":61616,"epoch":"2026-09-22T23:23:59.781408Z","epoch_age_seconds":83500,"freshness":"FRESH","line1":"1 61616U 24189C   26265.97499747  .00001295  00000+0  10599-3 0  9994","line2":"2 61616  97.5130 283.0578 0001874  91.6813 268.4626 15.00995108105118","mean_motion":15.00995108,"eccentricity":0.0001874,"inclination_deg":97.513,"raan_deg":283.0578,"arg_perigee_deg":91.6813,"mean_anomaly_deg":268.4626,"bstar":0.00010599,"rev_number":10511,"period_min":95.936355310227,"perigee_km":562.52553734523,"apogee_km":565.12738525053,"semimajor_km":6941.9634612979,"source":"CELESTRAK","updated_at":"2026-09-23T09:00:20.956166Z"}}